This demonstration page uses our WeatherBlox Daily Observations layout. Learn more.

36.17497, -115.13722

Hourly Observations for January 20, 2018

Temp ( °F °C ) Dew Point ( °F °C ) Humidity (%) Winds ( mph kmh ) Pressure ( in mb ) Visibility ( mi km ) Precip ( " mm )
12:53 am 00:53 Mostly Cloudy 57 13.9 39 3.9 51 51 W 15 24 29.75 1008 10 16.0934 0 0
1:53 am 01:53 Mostly Cloudy 56 13.3 36 2.2 47 47 WSW 16 26 29.74 1007 10 16.0934 0 0
2:53 am 02:53 Partly Cloudy 55 12.8 35 1.7 47 47 NW 16 26 29.74 1007 10 16.0934 0 0
3:53 am 03:53 Cloudy 52 11.1 35 1.7 53 53 NNW 22 35 29.76 1008 10 16.0934 0 0
4:53 am 04:53 Mostly Cloudy 50 10 33 0.6 52 52 NW 24 39 29.78 1009 10 16.0934 0 0
5:53 am 05:53 Clear 48 8.9 31 -0.6 52 52 NW 25 41 29.8 1009 10 16.0934 0 0
6:53 am 06:53 Mostly Cloudy 48 8.9 28 -2.2 46 46 NW 22 35 29.83 1010 10 16.0934 0 0
7:53 am 07:53 Mostly Cloudy 47 8.3 29 -1.7 50 50 NNW 20 31 29.85 1011 10 16.0934 0 0
8:53 am 08:53 Cloudy 48 8.9 27 -2.8 44 44 NNW 18 30 29.88 1012 10 16.0934 0 0
9:53 am 09:53 Mostly Cloudy 51 10.6 27 -2.8 39 39 NNW 21 33 29.89 1012 10 16.0934 0 0
10:53 am 10:53 Cloudy 51 10.6 27 -2.8 39 39 N 22 35 29.89 1012 10 16.0934 0 0
11:53 am 11:53 Sunny 52 11.1 25 -3.9 35 35 NNW 20 31 29.88 1012 10 16.0934 0 0
12:53 pm 12:53 Partly Cloudy 52 11.1 25 -3.9 35 35 NNW 20 31 29.87 1012 10 16.0934 0 0
1:53 pm 13:53 Mostly Cloudy 49 9.4 29 -1.7 46 46 NNW 26 43 29.9 1013 10 16.0934 0 0
2:53 pm 14:53 Mostly Cloudy 49 9.4 28 -2.2 44 44 N 23 37 29.92 1013 10 16.0934 0 0
3:53 pm 15:53 Sunny 49 9.4 25 -3.9 39 39 N 18 30 29.96 1014 10 16.0934 0 0
4:53 pm 16:53 Sunny 48 8.9 24 -4.4 39 39 NNW 10 17 29.99 1016 10 16.0934 0 0
5:53 pm 17:53 Clear 47 8.3 24 -4.4 41 41 N 7 11 30.02 1017 10 16.0934 0 0
6:53 pm 18:53 Clear 48 8.9 16 -8.9 28 28 N 15 24 30.05 1018 10 16.0934 0 0
7:53 pm 19:53 Clear 46 7.8 18 -7.8 32 32 NNW 14 22 30.07 1018 10 16.0934 0 0
8:53 pm 20:53 Clear 45 7.2 19 -7.2 35 35 NW 17 28 30.09 1019 10 16.0934 0 0
9:53 pm 21:53 Clear 45 7.2 15 -9.4 30 30 N 14 22 30.13 1020 10 16.0934 0 0
10:53 pm 22:53 Clear 44 6.7 14 -10 30 30 NNW 18 30 30.14 1021 10 16.0934 0 0
11:53 pm 23:53 Clear 44 6.7 14 -10 30 30 NNW 18 30 30.16 1022 10 16.0934 0 0

Powered by AerisWeather